{"data":{"norad_id":65037,"intl_designator":"2025-161Y","name":"STARLINK-34776","alt_names":[],"object_type":"PAYLOAD","status":"ACTIVE","operator":null,"country":"US","launch_date":"2025-07-30","launch_site_code":"AFWTR","launch_vehicle":null,"mission":null,"orbit_class":"UNKNOWN","rcs_meters":null,"size_class":null,"mass_kg":null,"dimensions":null,"purposes":["comms"],"wikipedia_slug":null,"has_3d_model":false,"image_url":null,"decayed_at":null,"tle_current":{"epoch":"2026-05-25T03:31:46.455744Z","epoch_age_seconds":62381,"freshness":"FRESH","line1":"1 65037U 25161Y   26145.14706546  .00008481  00000+0  29809-3 0  9998","line2":"2 65037  53.1626 299.2122 0001467  97.7413 262.3754 15.30206416 45930","mean_motion":15.30206416,"eccentricity":0.0001467,"inclination_deg":53.1626,"raan_deg":299.2122,"arg_perigee_deg":97.7413,"mean_anomaly_deg":262.3754,"bstar":0.00029809,"rev_number":4593,"period_min":94.104951132292,"perigee_km":474.19052852849,"apogee_km":476.20129640501,"semimajor_km":6853.3329124668,"source":"CELESTRAK","updated_at":"2026-05-25T13:38:20.672941Z"}}}